Campo, CA

5:26 AM PDT on July 17, 2019 (GMT -0700)
Campo

Weather History for KCZZ - May, 2019

Change the Weather History Date:

Friday, May 31, 2019

  Actual Average Record
Temperature  
Mean Temperature 60 °F 63 °F  
Max Temperature 75 °F 83 °F 97 °F (2012)
Min Temperature 44 °F 43 °F 28 °F (1959)
Degree Days  
Heating Degree Days 5 4  
Month to date heating degree days 297 159  
Since 1 July heating degree days 3015 2927  
Cooling Degree Days 0 2  
Month to date cooling degree days 0 27  
Year to date cooling degree days 2 30  
Growing Degree Days 10 (Base 50)    
Moisture  
Dew Point 47 °F    
Average Humidity 60    
Maximum Humidity 86    
Minimum Humidity 33    
Precipitation  
Precipitation 0.00 in 0.00 in 0.01 in (1967)
Month to date precipitation 1.55 0.18  
Year to date precipitation 12.74 10.04  
Sea Level Pressure  
Sea Level Pressure 29.80 in    
Wind  
Wind Speed 10 mph (SSW)    
Max Wind Speed 20 mph    
Max Gust Speed 23 mph    
T = Trace of Precipitation, MM = Missing Value Source: NWS Daily Summary

Daily Weather History Graph

Daily Weather History Graph

Search for Another Location

Airport or City:

Astronomy

May. 31, 2019 Rise Set
Actual Time 5:39 AM PDT 7:47 PM PDT
Civil Twilight 5:11 AM PDT 8:16 PM PDT
Nautical Twilight 4:37 AM PDT 8:50 PM PDT
Astronomical Twilight 4:00 AM PDT 9:27 PM PDT
Moon 4:02 AM PDT (5/31) 5:13 PM PDT (5/31)
Length of Visible Light 15h 04m
Length of Day
14h 08m
Waning Crescent, 8% of the Moon is Illuminated
May 31
Waning Crescent
Jun 3
New
Jun 9
First Quarter
Jun 17
Full
Jun 25
Last Quarter

Hourly Weather History & Observations

Time (PDT) Temp. Windchill Dew Point Humidity Pressure Visibility Wind Dir Wind Speed Gust Speed Precip Events Conditions
12:52 AM 51.1 °F - 46.9 °F 86% 29.84 in - ENE 5.8 mph - N/A   Unknown
1:52 AM 48.0 °F - 44.1 °F 86% 29.83 in - ENE 5.8 mph - N/A   Unknown
2:52 AM 48.0 °F - 44.1 °F 86% 29.81 in - ENE 5.8 mph - N/A   Unknown
3:52 AM 46.9 °F - 42.1 °F 83% 29.80 in - NE 6.9 mph - N/A   Unknown
4:52 AM 45.0 °F 41.2 °F 39.9 °F 82% 29.81 in - NE 6.9 mph - N/A   Unknown
5:52 AM 46.0 °F 42.5 °F 41.0 °F 83% 29.81 in - NE 6.9 mph - N/A   Unknown
6:52 AM 52.0 °F - 43.0 °F 71% 29.81 in - ENE 3.5 mph - N/A   Unknown
7:52 AM 61.0 °F - 46.9 °F 60% 29.80 in - Calm Calm - N/A   Unknown
8:52 AM 66.9 °F - 45.0 °F 45% 29.80 in - SSW 6.9 mph - N/A   Unknown
9:52 AM 66.9 °F - 52.0 °F 59% 29.81 in - SSW 11.5 mph - N/A   Unknown
10:52 AM 69.1 °F - 51.1 °F 53% 29.81 in - SW 13.8 mph - N/A   Unknown
11:52 AM 72.0 °F - 52.0 °F 49% 29.80 in - SW 17.3 mph - N/A   Unknown
12:52 PM 73.0 °F - 50.0 °F 44% 29.79 in - SSW 17.3 mph - N/A   Unknown
1:52 PM 73.9 °F - 51.1 °F 45% 29.79 in - SW 13.8 mph - N/A   Unknown
2:52 PM 75.0 °F - 48.9 °F 40% 29.78 in - SSW 17.3 mph - N/A   Unknown
3:52 PM 73.9 °F - 43.0 °F 33% 29.77 in - SSW 15.0 mph - N/A   Unknown
4:52 PM 73.0 °F - 48.0 °F 41% 29.77 in - SW 15.0 mph - N/A   Unknown
5:52 PM 69.1 °F - 52.0 °F 54% 29.76 in - SW 15.0 mph - N/A   Unknown
6:52 PM 64.0 °F - 53.1 °F 67% 29.77 in - SW 11.5 mph - N/A   Unknown
7:52 PM 57.9 °F - 52.0 °F 81% 29.78 in - SSW 9.2 mph - N/A   Unknown
8:52 PM 55.0 °F - 51.1 °F 86% 29.79 in - WSW 3.5 mph - N/A   Unknown
9:52 PM 52.0 °F - 48.9 °F 89% 29.81 in - Calm Calm - N/A   Unknown
10:52 PM 48.9 °F - 46.0 °F 90% 29.81 in - Calm Calm - N/A   Unknown
11:52 PM 50.0 °F - 46.9 °F 89% 29.80 in - Calm Calm - N/A   Unknown